Regional Weather Roundup
Issued by NWS

Home | Current Version | Previous Version | Graphics & Text | Print | Product List | Glossary On
Versions: 1 2 3 4 5 6 7 8 9 10 11 12 13 14 15 16 17 18 19 20 21 22 23 24 25 26 27 28 29 30 31 32 33 34 35 36 37 38 39 40 41 42 43 44 45 46 47 48 49 50
000
ASUS45 KPSR 111210
RWRAZ

ARIZONA HOURLY REGIONAL WEATHER ROUNDUP
NATIONAL WEATHER SERVICE PHOENIX AZ
500 AM MST THU FEB 11 2016

NOTE: FAIR INDICATES FEW OR NO CLOUDS BELOW 12,000 FEET WITH NO
SIGNIFICANT WEATHER AND/OR OBSTRUCTIONS TO VISIBILITY.

AZZ001>003-036-111300-
NORTHWEST ARIZONA

CITY           SKY/WX    TMP DP  RH WIND       PRES   REMARKS
BULLHEAD CITY  CLEAR     55  32  41 N6        30.17S
KINGMAN        PTCLDY    39  50 100 SW5       30.24F
6HR MIN TEMP:  34; 6HR MAX TEMP:  46;

$$

AZZ004>008-015-016-018-111300-
NORTH CENTRAL ARIZONA

CITY           SKY/WX    TMP DP  RH WIND       PRES   REMARKS
GRAND CANYON   MOCLDY    20  16  84 CALM      30.38R
6HR MIN TEMP:  20; 6HR MAX TEMP:  27;

WILLIAMS       PTCLDY    27  18  69 S10       30.42R WCI  17
PRESCOTT       MOCLDY    32  20  61 S9        30.31S WCI  24
6HR MIN TEMP:  31; 6HR MAX TEMP:  41;

FLAGSTAFF      PTCLDY    19  14  81 CALM      30.38S
6HR MIN TEMP:  18; 6HR MAX TEMP:  26;

PAYSON         CLEAR     43  18  36 CALM      30.31R
PAGE           MOCLDY    34  28  79 CALM      30.36R
6HR MIN TEMP:  33; 6HR MAX TEMP:  41;

$$

AZZ009>014-017-111300-
NORTHEAST ARIZONA

CITY           SKY/WX    TMP DP  RH WIND       PRES   REMARKS
WINSLOW        CLOUDY    23  18  81 E6        30.36S WCI  16
6HR MIN TEMP:  21; 6HR MAX TEMP:  33;

SAINT JOHNS    MOCLDY    23  15  71 S3        30.35S
6HR MIN TEMP:  19; 6HR MAX TEMP:  36;

WINDOW ROCK    PTCLDY    24   0  35 CALM      30.38R
6HR MIN TEMP:  24; 6HR MAX TEMP:  30;

SHOW LOW       MOCLDY    23  14  68 CALM      30.37S
$$

AZZ023-111300-
GREATER PHOENIX AREA

CITY           SKY/WX    TMP DP  RH WIND       PRES   REMARKS
PHOENIX        PTCLDY    58  34  40 SE6       30.12R
6HR MIN TEMP:  58; 6HR MAX TEMP:  68;

BUCKEYE        CLEAR     46  28  49 NE7       30.15R
LUKE AFB       CLEAR     51  31  47 NE2       30.12R
6HR MIN TEMP:  51; 6HR MAX TEMP:  64;

DEER VALLEY    CLEAR     50  31  48 W3        30.13R
6HR MIN TEMP:  50; 6HR MAX TEMP:  64;

SCOTTSDALE     CLEAR     51  35  54 CALM      30.14S
6HR MIN TEMP:  51; 6HR MAX TEMP:  65;

MESA-GATEWAY   PTCLDY    48  32  53 E9        30.15R
$$

AZZ027-028-111300-
SOUTHWEST MARICOPA COUNTY AND PINAL COUNTY

CITY           SKY/WX    TMP DP  RH WIND       PRES   REMARKS
CASA GRANDE    CLEAR     45  27  49 NE5       30.15R
6HR MIN TEMP:  45; 6HR MAX TEMP:  57;

GILA BEND      FAIR      46  27  48 CALM      30.11R
6HR MIN TEMP:  46; 6HR MAX TEMP:  58;

$$

AZZ503-504-507>509-111300-
SOUTHEAST ARIZONA

CITY           SKY/WX    TMP DP  RH WIND       PRES   REMARKS
TUCSON         CLEAR     48  21  34 SE9       30.21S
6HR MIN TEMP:  48; 6HR MAX TEMP:  55;

DAVIS-MONTHAN  PTCLDY    48  21  34 SE7       30.19S
6HR MIN TEMP:  47; 6HR MAX TEMP:  52;

NOGALES        CLEAR     38  19  46 CALM      30.23F
6HR MIN TEMP:  37; 6HR MAX TEMP:  50;

SIERRA VISTA   PTCLDY    48  17  29 SW3       30.27R
6HR MIN TEMP:  47; 6HR MAX TEMP:  52;

DOUGLAS        PTCLDY    32  14  47 SW3       30.26R
6HR MIN TEMP:  31; 6HR MAX TEMP:  41;

SAFFORD        MOCLDY    36  22  56 CALM      30.23R
6HR MIN TEMP:  36; 6HR MAX TEMP:  48;

$$

AZZ020-021-025-026-031-111300-
SOUTHWEST ARIZONA

CITY           SKY/WX    TMP DP  RH WIND       PRES   REMARKS
YUMA           CLEAR     62  26  25 N6        30.09S
6HR MIN TEMP:  56; 6HR MAX TEMP:  66;

$$

CAZ031-033-041-043-047-048-061-111300-
SOUTHERN CALIFORNIA

CITY           SKY/WX    TMP DP  RH WIND       PRES   REMARKS
DOWNTOWN L.A.  CLEAR     62  33  33 N3        30.07S
6HR MIN TEMP:  60; 6HR MAX TEMP:  66;

L.A. AIRPORT   PTCLDY    62  33  33 CALM      30.07F
6HR MIN TEMP:  58; 6HR MAX TEMP:  67;

SAN DIEGO      CLEAR     58  34  40 CALM      30.08S
6HR MIN TEMP:  58; 6HR MAX TEMP:  66;

BURBANK        CLEAR     56  31  38 CALM      30.09S
6HR MIN TEMP:  56; 6HR MAX TEMP:  68;

ONTARIO        CLEAR     55  35  47 NE7       30.10F
6HR MIN TEMP:  53; 6HR MAX TEMP:  65;

RIVERSIDE      CLEAR     56  30  37 NE6       30.11F
6HR MIN TEMP:  55; 6HR MAX TEMP:  65;

PALM SPRINGS   CLEAR     56  29  35 N7        30.13S
6HR MIN TEMP:  56; 6HR MAX TEMP:  64;

EL CENTRO NAS  CLEAR     50  22  33 W8        30.11S
6HR MIN TEMP:  49; 6HR MAX TEMP:  60;

IMPERIAL       CLEAR     51  26  37 W7        30.09S
6HR MIN TEMP:  50; 6HR MAX TEMP:  60;

BLYTHE         CLEAR     53  24  32 SW6       30.13S
6HR MIN TEMP:  53; 6HR MAX TEMP:  65;

NEEDLES        CLEAR     53  26  35 W6        30.16S
6HR MIN TEMP:  52; 6HR MAX TEMP:  64;

$$

NVZ020-UTZ003-111300-
SOUTHERN NEVADA-UTAH

CITY           SKY/WX    TMP DP  RH WIND       PRES   REMARKS
LAS VEGAS      PTCLDY    48  25  40 SW3       30.20S
6HR MIN TEMP:  48; 6HR MAX TEMP:  56;

SALT LAKE CITY CLOUDY    29  27  92 CALM      30.45S FOG
6HR MIN TEMP:  29; 6HR MAX TEMP:  30;

$$

NMZ009-TXZ055-111300-
NEW MEXICO-WEST TEXAS

CITY           SKY/WX    TMP DP  RH WIND       PRES   REMARKS
ALBUQUERQUE    CLOUDY    38  22  52 NE9       30.32R WCI  31
6HR MIN TEMP:  36; 6HR MAX TEMP:  50;

EL PASO        MOCLDY    34  16  47 CALM      30.23R
6HR MIN TEMP:  34; 6HR MAX TEMP:  54;

$$


........................KEY........................
SKY/WX - SKY CONDITION/WEATHER
TMP    - TEMPERATURE IN FAHRENHEIT
DP     - DEW POINT IN FAHRENHEIT
RH     - RELATIVE HUMIDITY IN PERCENT
WIND   - DIRECTION AND SPEED IN MILES PER HOUR (MPH)
VRB    - VARIABLE WIND DIRECTION
PRES   - MEAN SEA LEVEL PRESSURE IN INCHES OF MERCURY
         F - FALLING PRESSURE   R - RISING PRESSURE
         S - STEADY PRESSURE
VSB    - VISIBILITY IN MILES
HX     - HEAT INDEX IN FAHRENHEIT
WCI    - WIND CHILL INDEX IN FAHRENHEIT
TC     - TEMPERATURE IN CELSIUS WHICH IS ALSO KNOWN AS
         TEMPERATURE IN CENTIGRADE
AFB    - AIR FORCE BASE
         LUKE AFB IS LUKE AIR FORCE BASE
         DAVIS-MONTHAN IS DAVIS-MONTHAN AIR FORCE BASE
NAS    - NAVAL AIR STATION
         EL CENTRO NAS IS EL CENTRO NAVAL AIR STATION
N/A    - NOT AVAILABLE





USA.gov is the U.S. government's official web portal to all federal, state and local government web resources and services.